#timestamp,LO_Frequency,Hit,StdDev 
1710993615.6,286046992.8,P
1710993635.4,286046990.2,P
1710993655.3,286046994.4,N
1710993675.1,286046995.9,N
1710993695.8,286046999.3,N
1710993715.7,286047000.7,N
1710993735.5,286046999.8,N
1710993755.3,286047000.1,N
1710993775.2,286047001.7,N
1710993795.0,286047003.2,N
1710993795.9,286047003.2,N
1710993815.8,286047003.8,N
1710993835.6,286047005.1,N
1710993855.4,286047007.5,N
1710993875.3,286047008.4,N
1710993895.1,286047010.0,N
1710993915.8,286047008.1,N
1710993935.7,286047008.6,N
1710993955.5,286047008.5,N
1710993975.4,286047008.4,N
1710993995.2,286047006.2,N
1710994015.0,286047009.1,N
1710994015.9,286047009.1,N
1710994035.8,286047008.3,N
1710994055.6,286047010.0,N
1710994075.5,286047009.5,N
1710994095.3,286047010.0,N
1710994115.1,286047010.8,N
1710994135.9,286047008.2,N
1710994155.7,286047010.7,N
1710994175.5,286047009.4,N
1710994195.4,286047011.9,N
1710994215.2,286047011.8,N
1710994235.1,286047014.0,Y
1710994236.0,286047014.0,P
1710994255.8,286047008.4,N
1710994275.6,286047009.2,N
1710994295.5,286047006.1,N
1710994315.3,286047008.9,Y
1710994335.2,286047001.1,P
1710994355.9,286047000.7,N
1710994375.7,286046999.6,N
1710994395.6,286046996.6,N
1710994415.4,286046996.6,N
1710994435.2,286046996.6,N
1710994455.1,286046997.3,N
1710994456.0,286046997.3,N
1710994475.8,286046994.9,N
1710994495.7,286046996.4,N
1710994515.5,286046993.5,N
1710994535.3,286046996.2,N
1710994555.2,286046996.1,N
1710994605.0,286046994.3,E
1710994615.9,286046998.0,N
1710994635.7,286046999.3,P
1710994655.5,286046998.8,N
1710994675.4,286046996.6,Y
1710994695.2,286046998.1,P
1710994715.0,286046998.2,P
1710994716.0,286046998.2,P
1710994735.8,286046999.7,N
1710994755.6,286046999.8,N
1710994775.5,286047000.6,N
1710994795.3,286047000.1,N
1710994815.1,286047003.9,Y
1710994835.9,286047005.0,P
1710994855.7,286047005.1,N
1710994875.5,286047005.2,N
1710994895.4,286047005.9,N
1710994915.2,286047007.6,Y
1710994935.1,286047002.6,P
1710994936.0,286047002.6,P
1710994955.8,286047002.8,P
1710994975.6,286047004.4,Y
1710994995.5,286047000.8,P
1710995015.3,286047000.4,N
1710995035.2,286047002.1,N
1710995055.9,286046999.9,N
1710995075.7,286047000.6,N
1710995095.6,286047002.8,N
1710995115.4,286047002.0,N
1710995135.3,286047002.3,N
1710995155.1,286047002.1,N
1710995156.0,286047002.1,N
1710995175.8,286047002.5,N
1710995195.7,286047001.3,N
1710995215.5,286047000.3,N
1710995235.3,286046998.9,N
1710995255.2,286046998.1,N
1710995275.0,286047000.0,N
1710995275.9,286047000.0,N
1710995295.8,286046998.7,N
1710995315.6,286047000.0,N
1710995335.4,286047001.1,N
1710995355.3,286046999.0,N
1710995375.1,286046996.9,N
1710995395.9,286046996.8,N
1710995415.7,286047001.0,N
1710995435.5,286047001.0,N
1710995455.4,286047000.5,N
1710995475.2,286047001.2,N
1710995495.0,286047000.9,N
1710995495.9,286047000.9,N
1710995515.8,286047002.7,N
1710995535.6,286046998.2,N
1710995555.5,286046999.3,N
1710995575.3,286046997.0,N
1710995595.1,286046999.4,N
1710995615.9,286047000.5,N
1710995635.7,286046998.1,N
1710995655.5,286046998.8,N
1710995675.4,286047000.8,N
1710995695.2,286046999.7,N
1710995715.1,286047002.0,N
1710995716.0,286047002.0,N
1710995735.8,286047001.1,N
1710995755.6,286047000.4,N
1710995775.5,286047001.1,N
1710995795.3,286047000.6,N
1710995815.1,286046998.2,N
1710995835.9,286046999.5,N
1710995855.7,286046993.5,Y
1710995875.6,286046996.2,P
1710995895.4,286046994.2,P
1710995915.2,286046993.7,N
1710995935.1,286046995.8,N
1710995936.0,286046995.8,N
1710995955.8,286046993.4,Y
1710995975.6,286047000.8,P
1710995995.5,286047001.4,N
1710996015.3,286047003.9,N
1710996035.2,286047005.5,N
1710996055.9,286047001.5,N
1710996075.7,286047004.1,N
1710996095.6,286046999.7,N
1710996115.4,286047000.0,N
1710996135.2,286047002.8,N
1710996155.1,286047002.2,N
1710996156.0,286047002.2,N
1710996175.8,286047001.5,N
1710996195.7,286047002.8,N
1710996215.5,286047004.3,N
1710996235.3,286047001.8,N
1710996255.2,286047002.0,N
1710996275.0,286047004.0,N
1710996275.9,286047004.0,N
1710996295.8,286047000.3,N
1710996315.6,286047000.9,N
1710996335.4,286046999.4,N
1710996355.3,286046996.6,N
1710996375.1,286046997.3,N
1710996395.9,286046997.0,N
1710996415.7,286046997.8,N
1710996435.5,286046997.3,N
1710996455.4,286046997.1,N
1710996475.3,286046998.0,N
1710996495.1,286046994.9,N
1710996515.9,286046993.6,N
1710996535.7,286046994.7,N
1710996555.5,286046992.3,N
1710996575.4,286046993.1,N
1710996595.2,286046993.0,N
1710996615.1,286046993.2,N
1710996616.0,286046993.2,N
1710996635.8,286046992.0,N
1710996655.7,286046995.7,N
1710996675.5,286046999.2,N
1710996695.4,286046997.7,N
1710996715.2,286046998.0,N
1710996735.0,286046993.8,N
1710996735.9,286046993.8,N
1710996755.8,286046995.9,N
1710996775.7,286046995.1,N
1710996795.5,286046995.9,N
1710996815.3,286046995.1,N
1710996835.2,286046995.5,N
1710996855.0,286046993.8,N
1710996855.9,286046993.8,N
1710996875.8,286046993.7,Y
1710996895.6,286046999.2,P
1710996915.4,286046998.8,N
1710996935.3,286046998.1,N
1710996955.1,286047002.2,N
1710996975.9,286047004.3,N
1710996995.7,286047003.0,N
1710997015.5,286047006.8,N
1710997035.4,286047009.1,N
1710997055.2,286047007.3,N
1710997075.0,286047006.3,N
1710997076.0,286047006.3,N
1710997095.8,286047007.3,N
1710997115.6,286047004.5,N
1710997135.5,286047005.8,N
1710997155.3,286047005.4,N
1710997175.1,286047001.4,N
1710997195.9,286047004.1,N
